Regional Weather Roundup
Issued by NWS

Home | Current Version | Previous Version | Text Only | Print | Product List | Glossary On
Versions: 1 2 3 4 5 6 7 8 9 10 11 12 13 14 15 16 17 18 19 20 21 22 23 24 25 26 27 28 29 30 31 32 33 34 35 36 37 38 39 40 41 42 43 44 45 46 47 48 49 50
000
ASUS43 KLMK 251310
RWRKY
KENTUCKY REGIONAL WEATHER ROUNDUP
NATIONAL WEATHER SERVICE LOUISVILLE KY
900 AM EDT THU AUG 25 2016

NOTE "FAIR" INDICATES FEW OR NO CLOUDS BELOW 12,000 FEET
WITH NO SIGNIFICANT WEATHER AND/OR OBSTRUCTIONS TO VISIBILITY.

KYZ001>023-026-027-061>063-070>075-251400-
WESTERN AND SOUTH CENTRAL KENTUCKY

CITY           SKY/WX    TMP DP  RH WIND       PRES   REMARKS
PADUCAH        SUNNY     78  74  87 SW5       30.11R
HENDERSON      SUNNY     79  72  78 SW5       30.10R
OWENSBORO      SUNNY     81  77  88 SW7       30.12R
HOPKINSVILLE   SUNNY     79  75  86 SW5       30.14R
BOWLING GREEN  SUNNY     79  73  82 S6        30.14F
GLASGOW        SUNNY     76  74  93 S5        30.16S
$$

KYZ024-025-028>034-038-045-046-053-251400-
NORTH CENTRAL KENTUCKY

CITY           SKY/WX    TMP DP  RH WIND       PRES   REMARKS
LOUISVILLE/SDF MOSUNNY   82  74  76 SW9       30.11R
LOUISVILLE/LOU SUNNY     81  73  76 SW6       30.12R
FORT KNOX      SUNNY     79  74  84 S7        30.12S
$$

KYZ035>037-039>044-047>052-055>060-089>105-251400-
NORTHEAST KENTUCKY

CITY           SKY/WX    TMP DP  RH WIND       PRES   REMARKS
LEXINGTON      SUNNY     77  72  84 SW8       30.15R
COVINGTON      MOSUNNY   79  75  87 SW8       30.09
FRANKFORT      SUNNY     79  72  79 SW9       30.12S
$$

KYZ054-064>069-076>088-106>120-251400-
SOUTHEAST KENTUCKY

CITY           SKY/WX    TMP DP  RH WIND       PRES   REMARKS
JACKSON        MOSUNNY   74  70  87 CALM      30.19R
LONDON         SUNNY     75  69  81 SW7       30.20R
SOMERSET       MOSUNNY   73  72  94 S5        30.20S
MIDDLESBORO    PTSUNNY   71  70  95 CALM      30.23R
MONTICELLO     PTSUNNY  N/A N/A N/A N8        30.20S
$$





USA.gov is the U.S. government's official web portal to all federal, state and local government web resources and services.